Time,TemperatureF,DewpointF,PressureIn,WindDirection,WindDirectionDegrees,WindSpeedMPH,WindSpeedGustMPH,Humidity,HourlyPrecipIn,Conditions,Clouds,dailyrainin,SoftwareType,DateUTC
2013-04-19 00:11:00,53.2,52.0,30.09,SSE,163,1.0,2.0,96,0.00,,,0.00,weatherlink.com 1.10,2013-04-19 04:11:00,
2013-04-19 00:26:00,53.2,52.0,30.08,SW,219,1.0,1.0,96,0.00,,,0.00,weatherlink.com 1.10,2013-04-19 04:26:00,
2013-04-19 00:41:00,53.3,52.0,30.07,SSW,203,0.0,1.0,96,0.00,,,0.00,weatherlink.com 1.10,2013-04-19 04:41:00,
2013-04-19 00:56:00,53.5,52.0,30.07,South,191,0.0,2.0,96,0.00,,,0.00,weatherlink.com 1.10,2013-04-19 04:56:00,
2013-04-19 01:11:00,53.6,53.0,30.06,SSW,200,1.0,1.0,96,0.00,,,0.00,weatherlink.com 1.10,2013-04-19 05:11:00,
2013-04-19 01:26:00,53.4,52.0,30.05,SSW,194,0.0,0.0,96,0.00,,,0.00,weatherlink.com 1.10,2013-04-19 05:26:00,
2013-04-19 01:41:00,53.5,53.0,30.05,SSW,194,0.0,0.0,97,0.00,,,0.00,weatherlink.com 1.10,2013-04-19 05:41:00,
2013-04-19 01:56:00,53.7,53.0,30.05,SSW,194,0.0,0.0,97,0.00,,,0.00,weatherlink.com 1.10,2013-04-19 05:56:00,
2013-04-19 02:11:00,53.8,53.0,30.04,SSW,194,0.0,0.0,97,0.00,,,0.00,weatherlink.com 1.10,2013-04-19 06:11:00,
2013-04-19 02:26:00,53.8,53.0,30.03,South,181,0.0,0.0,97,0.00,,,0.00,weatherlink.com 1.10,2013-04-19 06:26:00,
2013-04-19 02:41:00,54.0,53.0,30.03,SW,217,0.0,0.0,97,0.00,,,0.00,weatherlink.com 1.10,2013-04-19 06:41:00,
2013-04-19 02:56:00,54.0,53.0,30.02,SSW,210,0.0,0.0,97,0.00,,,0.00,weatherlink.com 1.10,2013-04-19 06:56:00,
2013-04-19 03:11:00,53.9,53.0,30.01,SSW,208,0.0,0.0,97,0.00,,,0.00,weatherlink.com 1.10,2013-04-19 07:11:00,
2013-04-19 03:26:00,53.9,53.0,30.00,SSW,200,0.0,0.0,97,0.00,,,0.00,weatherlink.com 1.10,2013-04-19 07:26:00,
2013-04-19 03:41:00,54.0,53.0,29.99,SSW,205,0.0,0.0,97,0.00,,,0.00,weatherlink.com 1.10,2013-04-19 07:41:00,
2013-04-19 03:56:00,54.4,54.0,29.98,SSW,197,1.0,1.0,97,0.00,,,0.00,weatherlink.com 1.10,2013-04-19 07:56:00,
2013-04-19 04:11:00,54.7,54.0,29.98,South,181,1.0,3.0,97,0.00,,,0.00,weatherlink.com 1.10,2013-04-19 08:11:00,
2013-04-19 04:26:00,55.0,54.0,29.98,South,181,0.0,1.0,97,0.00,,,0.00,weatherlink.com 1.10,2013-04-19 08:26:00,
2013-04-19 04:41:00,55.4,55.0,29.98,South,170,0.0,1.0,97,0.00,,,0.00,weatherlink.com 1.10,2013-04-19 08:41:00,
2013-04-19 04:57:00,55.6,55.0,29.97,SSE,163,3.0,4.0,97,0.00,,,0.00,weatherlink.com 1.10,2013-04-19 08:57:00,
2013-04-19 05:12:00,55.8,55.0,29.97,SSE,153,0.0,1.0,97,0.00,,,0.00,weatherlink.com 1.10,2013-04-19 09:12:00,
2013-04-19 05:27:00,56.1,55.0,29.96,SSE,153,0.0,0.0,97,0.00,,,0.00,weatherlink.com 1.10,2013-04-19 09:27:00,
2013-04-19 05:42:00,56.7,56.0,29.96,SSE,153,0.0,2.0,97,0.00,,,0.00,weatherlink.com 1.10,2013-04-19 09:42:00,
2013-04-19 05:57:00,57.1,56.0,29.96,SSE,153,0.0,0.0,97,0.00,,,0.00,weatherlink.com 1.10,2013-04-19 09:57:00,
2013-04-19 06:12:00,57.3,57.0,29.96,SSE,154,0.0,1.0,97,0.00,,,0.00,weatherlink.com 1.10,2013-04-19 10:12:00,
2013-04-19 06:27:00,57.2,56.0,29.95,South,183,0.0,1.0,97,0.00,,,0.00,weatherlink.com 1.10,2013-04-19 10:27:00,
2013-04-19 06:42:00,57.2,56.0,29.95,South,183,0.0,2.0,97,0.00,,,0.00,weatherlink.com 1.10,2013-04-19 10:42:00,
2013-04-19 06:57:00,57.4,57.0,29.96,South,181,0.0,1.0,97,0.00,,,0.00,weatherlink.com 1.10,2013-04-19 10:57:00,
2013-04-19 07:12:00,57.6,57.0,29.97,South,181,0.0,1.0,96,0.00,,,0.00,weatherlink.com 1.10,2013-04-19 11:12:00,
2013-04-19 07:27:00,58.0,57.0,29.97,South,181,0.0,1.0,96,0.00,,,0.00,weatherlink.com 1.10,2013-04-19 11:27:00,
2013-04-19 07:42:00,59.2,58.0,29.96,SSE,158,1.0,3.0,97,0.00,,,0.00,weatherlink.com 1.10,2013-04-19 11:42:00,
2013-04-19 07:57:00,60.3,59.0,29.95,SSE,160,2.0,7.0,95,0.00,,,0.00,weatherlink.com 1.10,2013-04-19 11:57:00,
2013-04-19 08:12:00,60.7,59.0,29.95,South,169,0.0,3.0,93,0.00,,,0.00,weatherlink.com 1.10,2013-04-19 12:12:00,
2013-04-19 08:27:00,61.2,59.0,29.94,SSW,195,2.0,4.0,91,0.00,,,0.00,weatherlink.com 1.10,2013-04-19 12:27:00,
2013-04-19 08:42:00,61.7,59.0,29.94,SSW,203,0.0,4.0,90,0.00,,,0.00,weatherlink.com 1.10,2013-04-19 12:42:00,
2013-04-19 08:56:00,62.5,59.0,29.93,South,191,0.0,5.0,88,0.00,,,0.00,weatherlink.com 1.10,2013-04-19 12:56:00,
2013-04-19 09:11:00,63.0,59.0,29.93,SSE,162,2.0,4.0,87,0.00,,,0.00,weatherlink.com 1.10,2013-04-19 13:11:00,
2013-04-19 09:26:00,62.9,59.0,29.93,SSW,198,0.0,3.0,86,0.00,,,0.00,weatherlink.com 1.10,2013-04-19 13:26:00,
2013-04-19 09:41:00,62.6,59.0,29.92,SSW,210,0.0,3.0,87,0.00,,,0.00,weatherlink.com 1.10,2013-04-19 13:41:00,
2013-04-19 09:56:00,63.3,59.0,29.91,South,170,0.0,4.0,86,0.00,,,0.00,weatherlink.com 1.10,2013-04-19 13:56:00,
2013-04-19 10:11:00,63.8,59.0,29.91,South,181,1.0,4.0,85,0.00,,,0.00,weatherlink.com 1.10,2013-04-19 14:11:00,
2013-04-19 10:26:00,64.0,60.0,29.90,South,173,0.0,4.0,85,0.00,,,0.00,weatherlink.com 1.10,2013-04-19 14:26:00,
2013-04-19 10:42:00,64.6,60.0,29.89,SSW,194,0.0,5.0,84,0.00,,,0.00,weatherlink.com 1.10,2013-04-19 14:42:00,
2013-04-19 10:57:00,66.8,60.0,29.88,SSW,207,2.0,3.0,80,0.00,,,0.00,weatherlink.com 1.10,2013-04-19 14:57:00,
2013-04-19 11:12:00,67.8,60.0,29.88,South,191,1.0,5.0,77,0.00,,,0.00,weatherlink.com 1.10,2013-04-19 15:12:00,
2013-04-19 11:27:00,67.2,60.0,29.86,SSW,207,0.0,4.0,78,0.00,,,0.00,weatherlink.com 1.10,2013-04-19 15:27:00,
2013-04-19 11:42:00,68.3,61.0,29.86,SSE,159,1.0,4.0,77,0.00,,,0.00,weatherlink.com 1.10,2013-04-19 15:42:00,
2013-04-19 11:57:00,69.6,61.0,29.85,South,190,2.0,6.0,73,0.00,,,0.00,weatherlink.com 1.10,2013-04-19 15:57:00,
2013-04-19 12:12:00,67.0,59.0,29.84,SSW,199,3.0,8.0,76,0.00,,,0.00,weatherlink.com 1.10,2013-04-19 16:12:00,
2013-04-19 12:27:00,64.3,58.0,29.84,South,174,1.0,7.0,80,0.00,,,0.00,weatherlink.com 1.10,2013-04-19 16:27:00,
2013-04-19 12:42:00,64.1,58.0,29.82,SSE,154,1.0,5.0,81,0.00,,,0.00,weatherlink.com 1.10,2013-04-19 16:42:00,
2013-04-19 12:57:00,65.5,59.0,29.82,SSW,198,2.0,7.0,79,0.00,,,0.00,weatherlink.com 1.10,2013-04-19 16:57:00,
2013-04-19 13:12:00,65.9,59.0,29.81,SSW,194,1.0,9.0,79,0.00,,,0.00,weatherlink.com 1.10,2013-04-19 17:12:00,
2013-04-19 13:27:00,70.3,63.0,29.80,South,185,5.0,6.0,77,0.00,,,0.00,weatherlink.com 1.10,2013-04-19 17:27:00,
2013-04-19 13:42:00,73.8,64.0,29.80,SE,143,3.0,10.0,71,0.00,,,0.00,weatherlink.com 1.10,2013-04-19 17:42:00,
2013-04-19 13:57:00,69.7,63.0,29.80,South,191,1.0,6.0,78,0.00,,,0.00,weatherlink.com 1.10,2013-04-19 17:57:00,
2013-04-19 14:12:00,69.5,62.0,29.79,South,191,2.0,4.0,77,0.00,,,0.00,weatherlink.com 1.10,2013-04-19 18:12:00,
2013-04-19 14:27:00,68.8,61.0,29.77,SSW,203,1.0,5.0,77,0.00,,,0.00,weatherlink.com 1.10,2013-04-19 18:27:00,
2013-04-19 14:42:00,68.7,61.0,29.76,South,174,4.0,6.0,76,0.00,,,0.00,weatherlink.com 1.10,2013-04-19 18:42:00,
2013-04-19 14:57:00,67.7,60.0,29.75,SSE,155,4.0,7.0,77,0.00,,,0.00,weatherlink.com 1.10,2013-04-19 18:57:00,
2013-04-19 15:12:00,67.4,60.0,29.75,South,188,1.0,9.0,78,0.00,,,0.00,weatherlink.com 1.10,2013-04-19 19:12:00,
2013-04-19 15:27:00,67.5,60.0,29.73,South,181,3.0,7.0,77,0.00,,,0.00,weatherlink.com 1.10,2013-04-19 19:27:00,
2013-04-19 15:42:00,67.7,60.0,29.69,SSE,166,2.0,8.0,77,0.00,,,0.00,weatherlink.com 1.10,2013-04-19 19:42:00,
2013-04-19 15:57:00,67.9,60.0,29.70,SSW,205,5.0,8.0,76,0.00,,,0.00,weatherlink.com 1.10,2013-04-19 19:57:00,
2013-04-19 16:12:00,66.6,60.0,29.70,SW,221,2.0,12.0,78,0.00,,,0.00,weatherlink.com 1.10,2013-04-19 20:12:00,
2013-04-19 16:27:00,64.9,59.0,29.70,South,186,3.0,8.0,81,0.00,,,0.00,weatherlink.com 1.10,2013-04-19 20:27:00,
2013-04-19 16:42:00,65.1,60.0,29.69,SSW,200,0.0,6.0,82,0.00,,,0.00,weatherlink.com 1.10,2013-04-19 20:42:00,
2013-04-19 16:57:00,66.5,60.0,29.68,SSW,201,1.0,3.0,80,0.00,,,0.00,weatherlink.com 1.10,2013-04-19 20:57:00,
2013-04-19 17:12:00,67.9,61.0,29.68,SSW,206,6.0,7.0,79,0.00,,,0.00,weatherlink.com 1.10,2013-04-19 21:12:00,
2013-04-19 17:28:00,68.0,61.0,29.68,SW,214,6.0,6.0,77,0.00,,,0.00,weatherlink.com 1.10,2013-04-19 21:28:00,
2013-04-19 17:43:00,67.8,60.0,29.68,South,191,1.0,5.0,77,0.00,,,0.00,weatherlink.com 1.10,2013-04-19 21:43:00,
2013-04-19 17:58:00,66.3,59.0,29.68,WSW,239,4.0,8.0,78,0.00,,,0.00,weatherlink.com 1.10,2013-04-19 21:58:00,
2013-04-19 18:13:00,64.6,59.0,29.68,SSW,207,1.0,5.0,81,0.00,,,0.00,weatherlink.com 1.10,2013-04-19 22:13:00,
2013-04-19 18:28:00,64.4,59.0,29.67,SSW,194,2.0,3.0,82,0.00,,,0.00,weatherlink.com 1.10,2013-04-19 22:28:00,
2013-04-19 18:43:00,64.7,59.0,29.67,SSW,194,1.0,3.0,83,0.00,,,0.00,weatherlink.com 1.10,2013-04-19 22:43:00,
2013-04-19 18:58:00,64.7,59.0,29.67,South,183,1.0,5.0,83,0.00,,,0.00,weatherlink.com 1.10,2013-04-19 22:58:00,
2013-04-19 19:13:00,64.7,60.0,29.66,SSW,211,0.0,4.0,84,0.00,,,0.00,weatherlink.com 1.10,2013-04-19 23:13:00,
2013-04-19 19:28:00,64.8,60.0,29.65,WSW,252,1.0,3.0,84,0.00,,,0.00,weatherlink.com 1.10,2013-04-19 23:28:00,
2013-04-19 19:43:00,64.7,60.0,29.65,South,188,2.0,5.0,85,0.00,,,0.00,weatherlink.com 1.10,2013-04-19 23:43:00,
2013-04-19 19:58:00,65.0,60.0,29.64,SSW,194,0.0,4.0,85,0.00,,,0.00,weatherlink.com 1.10,2013-04-19 23:58:00,
2013-04-19 20:13:00,64.4,60.0,29.64,South,179,1.0,5.0,86,0.00,,,0.00,weatherlink.com 1.10,2013-04-20 00:13:00,
2013-04-19 20:28:00,67.8,64.0,29.64,SSW,207,3.0,10.0,86,0.00,,,0.00,weatherlink.com 1.10,2013-04-20 00:28:00,
2013-04-19 20:43:00,69.1,64.0,29.64,South,183,2.0,10.0,84,0.00,,,0.00,weatherlink.com 1.10,2013-04-20 00:43:00,
2013-04-19 20:58:00,69.2,64.0,29.64,South,181,2.0,8.0,84,0.00,,,0.00,weatherlink.com 1.10,2013-04-20 00:58:00,
2013-04-19 21:13:00,69.2,64.0,29.64,South,170,2.0,9.0,84,0.00,,,0.00,weatherlink.com 1.10,2013-04-20 01:13:00,
2013-04-19 21:28:00,69.3,64.0,29.64,SSE,165,3.0,7.0,83,0.00,,,0.00,weatherlink.com 1.10,2013-04-20 01:28:00,
2013-04-19 21:43:00,69.5,64.0,29.63,SSE,155,3.0,6.0,83,0.00,,,0.00,weatherlink.com 1.10,2013-04-20 01:43:00,
2013-04-19 21:58:00,69.6,64.0,29.64,SSW,201,2.0,10.0,83,0.00,,,0.00,weatherlink.com 1.10,2013-04-20 01:58:00,
2013-04-19 22:13:00,69.6,65.0,29.64,SSE,147,2.0,9.0,84,0.01,,,0.01,weatherlink.com 1.10,2013-04-20 02:13:00,
2013-04-19 22:28:00,69.6,65.0,29.68,ENE,63,4.0,9.0,86,0.03,,,0.03,weatherlink.com 1.10,2013-04-20 02:28:00,
2013-04-19 22:43:00,66.9,63.0,29.68,NE,53,5.0,7.0,87,0.07,,,0.07,weatherlink.com 1.10,2013-04-20 02:43:00,
2013-04-19 22:58:00,65.3,62.0,29.66,East,101,0.0,4.0,89,0.08,,,0.08,weatherlink.com 1.10,2013-04-20 02:58:00,
2013-04-19 23:13:00,64.7,62.0,29.66,SSE,163,0.0,2.0,90,0.07,,,0.08,weatherlink.com 1.10,2013-04-20 03:13:00,
2013-04-19 23:28:00,64.5,62.0,29.66,South,184,0.0,4.0,90,0.05,,,0.08,weatherlink.com 1.10,2013-04-20 03:28:00,
2013-04-19 23:43:00,64.1,62.0,29.64,SSE,167,0.0,4.0,91,0.02,,,0.09,weatherlink.com 1.10,2013-04-20 03:43:00,
2013-04-19 23:58:00,63.9,62.0,29.66,SE,135,0.0,5.0,92,0.02,,,0.10,weatherlink.com 1.10,2013-04-20 03:58:00,